{"data":{"norad_id":53470,"intl_designator":"2022-099F","name":"STARLINK-4393","alt_names":[],"object_type":"PAYLOAD","status":"ACTIVE","operator":null,"country":"US","launch_date":"2022-08-12","launch_site_code":"AFWTR","launch_vehicle":null,"mission":null,"orbit_class":"UNKNOWN","rcs_meters":null,"size_class":null,"mass_kg":null,"dimensions":null,"purposes":["comms"],"wikipedia_slug":null,"has_3d_model":false,"image_url":null,"decayed_at":null,"tle_current":{"epoch":"2026-05-24T19:14:24.555840Z","epoch_age_seconds":88872,"freshness":"FRESH","line1":"1 53470U 22099F   26144.80167310  .00000717  00000+0  53727-4 0  9996","line2":"2 53470  97.4521 264.7510 0001398 154.1650 205.9647 15.05649958207427","mean_motion":15.05649958,"eccentricity":0.0001398,"inclination_deg":97.4521,"raan_deg":264.751,"arg_perigee_deg":154.165,"mean_anomaly_deg":205.9647,"bstar":5.3727e-5,"rev_number":20742,"period_min":95.639759583482,"perigee_km":548.54279764001,"apogee_km":550.47976809989,"semimajor_km":6927.6482828699,"source":"CELESTRAK","updated_at":"2026-05-25T13:38:17.409405Z"}}}